{"data":{"norad_id":55332,"intl_designator":"2023-013B","name":"STARLINK-5491","alt_names":[],"object_type":"PAYLOAD","status":"ACTIVE","operator":null,"country":"US","launch_date":"2023-01-26","launch_site_code":"AFETR","launch_vehicle":null,"mission":null,"orbit_class":"UNKNOWN","rcs_meters":null,"size_class":null,"mass_kg":null,"dimensions":null,"purposes":["comms"],"wikipedia_slug":null,"has_3d_model":false,"image_url":null,"decayed_at":null,"tle_current":{"epoch":"2026-09-19T17:13:10.487136Z","epoch_age_seconds":164275,"freshness":"FRESH","line1":"1 55332U 23013B   26262.71748249 -.00000131  00000+0  47531-5 0  9997","line2":"2 55332  43.0025 273.2465 0001271 265.7631  94.3075 15.27576257201518","mean_motion":15.27576257,"eccentricity":0.0001271,"inclination_deg":43.0025,"raan_deg":273.2465,"arg_perigee_deg":265.7631,"mean_anomaly_deg":94.3075,"bstar":4.7531e-6,"rev_number":20151,"period_min":94.266979694226,"perigee_km":482.18824577374,"apogee_km":483.93236212841,"semimajor_km":6861.1973039511,"source":"CELESTRAK","updated_at":"2026-09-21T09:00:33.177699Z"}}}